Hourly Data Report for September 06, 2019

SAINT JOHN A
NEW BRUNSWICK
Current Station Operator: NAVCAN

45°18'58.000" N
65°53'24.000" W
108.80 m
8104901
71609
YSJ

Download Data

Hourly Data (September 2019)
Hourly Data Report for September 6, 2019
TIME
LST
Temp Definition
°C
Dew Point Definition
°C
Rel Hum Definition
%
Precip. Amount Definition
mm

Wind Dir Definition
10's deg

Wind Spd Definition
km/h
Visibility Definition
km
Stn Press Definition
kPa
Hmdx Definition


Wind Chill Definition


Weather Definition


00:00 6.9 6.9 100   36 1 24.1 100.37     LegendNANA
01:00 6.6 6.6 100   36 2 24.1 100.44     LegendNANA
02:00 7.3 6.8 97   1 11 24.1 100.43     Mainly Clear
03:00 10.7 8.6 87   35 15 24.1 100.45     LegendNANA
04:00 9.1 7.9 92   32 11 24.1 100.48     LegendNANA
05:00 8.2 7.7 97   5 3 24.1 100.51     Mainly Clear
06:00 7.3 7.1 99   15 3 24.1 100.55     LegendNANA
07:00 9.5 9.0 97   36 2 24.1 100.60     LegendNANA
08:00 12.3 10.1 86   36 3 24.1 100.67     Mainly Clear
09:00 15.0 9.1 68   2 9 24.1 100.67     LegendNANA
10:00 16.3 6.4 52   1 8 24.1 100.69     LegendNANA
11:00 17.4 5.8 46   1 5 24.1 100.66     Mainly Clear
12:00 18.3 6.1 44   1 13 24.1 100.63     LegendNANA
13:00 18.5 6.3 45   11 7 24.1 100.59     LegendNANA
14:00 18.3 6.6 46   17 10 24.1 100.53     Mainly Clear
15:00 18.1 6.3 46   16 18 24.1 100.50     LegendNANA
16:00 17.2 6.0 47   16 16 24.1 100.54     LegendNANA
17:00 16.3 6.8 53   14 8 24.1 100.49     Mostly Cloudy
18:00 15.0 7.9 62   14 3 24.1 100.52     LegendNANA
19:00 12.3 9.3 82   36 3 24.1 100.45     LegendNANA
20:00 10.4 8.7 89   4 5 24.1 100.47     Mostly Cloudy
21:00 9.8 8.3 91   8 7 24.1 100.52     LegendNANA
22:00 9.1 7.8 92   7 8 24.1 100.41     LegendNANA
23:00 10.1 7.1 81   7 8 24.1 100.36     Mostly Cloudy

Notes on Data Quality.

Legend

  • E = Estimated
  • M = Missing
  • NA = Not Available*
  • [empty] = Indicates an unobserved value
Date modified: